Location: Eschertshofen
(49.3064°N, 11.5756°E)
Time: 23:26:38
(UTC+00:00)

YAOGAN 1 - Pass Details

Date: 18 September 2020
Orbit: 618 x 620 km, 97.9° (Epoch: 30 October)

Event Time Altitude Azimuth Distance (km) Brightness Sun altitude
Rises 18:22:08 0° 185° (S) 2,886 5.9 -10.9°
Reaches altitude 10° 18:24:26 10° 194° (SSW) 1,985 5.1 -11.2°
Maximum altitude 18:28:27 38° 262° (W) 957 4.1 -11.9°
Drops below altitude 10° 18:32:32 10° 332° (NNW) 2,000 5.9 -12.5°
Sets 18:34:52 0° 340° (NNW) 2,912 6.6 -12.9°
